Location: S�tio Afonso Gruber
(26.1760°S, 49.5250°W)
Time: 20:54:04
(UTC+00:00)

Cosmos 2016 Rocket - Pass Details

Date: 05 October 2020
Orbit: 946 x 1001 km, 83.0° (Epoch: 27 October)

Event Time Altitude Azimuth Distance (km) Brightness Sun altitude
Exits shadow 07:02:28 - 3° (N) 3,416 6.7 -25.0°
Reaches altitude 10° 07:04:23 10° 4° (N) 2,698 6.2 -24.6°
Maximum altitude 07:10:32 71° 87° (E) 1,036 4.2 -23.3°
Drops below altitude 10° 07:16:51 10° 170° (S) 2,767 6.7 -21.9°
Sets 07:19:24 0° 171° (S) 3,728 7.4 -21.4°
